Hourly Data Report for May 07, 2021

ATIKOKAN (AUT)
ONTARIO
Current Station Operator: ECCC - MSC

48°45'40.000" N
91°37'41.000" W
389.30 m
6020LPQ
71747
WCH

Download Data

Hourly Data (May 2021)
Hourly Data Report for May 7, 2021
TIME
LST
Temp Definition
°C
Dew Point Definition
°C
Rel Hum Definition
%
Precip. Amount Definition
mm

Wind Dir Definition
10's deg

Wind Spd Definition
km/h
Visibility Definition
km
Stn Press Definition
kPa
Hmdx Definition


Wind Chill Definition


Weather Definition


00:00 2.3 -1.4 77 0.0 34 3   97.12     LegendNANA
01:00 2.8 -2.0 70 0.0 35 9   97.12     LegendNANA
02:00 0.4 -1.2 89 0.0 35 6   97.15     LegendNANA
03:00 -0.6 -2.2 89 0.0 35 3   97.19   -2 LegendNANA
04:00 -0.3 -1.9 89 0.0 35 7   97.22   -3 LegendNANA
05:00 -0.2 -1.1 93 0.2 35 7   97.27   -3 LegendNANA
06:00 0.6 -1.2 88 0.0 35 5   97.30     LegendNANA
07:00 2.6 -0.9 78 0.0 1 8   97.34     LegendNANA
08:00 3.3 -2.3 66 0.0 36 10   97.37     LegendNANA
09:00 3.6 -1.7 69 0.0 35 12   97.38     LegendNANA
10:00 4.7 -2.5 60 0.0 34 12   97.37     LegendNANA
11:00 5.5 -3.2 53 0.0 35 11   97.37     LegendNANA
12:00 7.6 -1.7 52 0.0 34 9   97.32     LegendNANA
13:00 9.3 -1.9 46 0.0 35 11   97.29     LegendNANA
14:00 8.6 -3.9 41 0.0 36 12   97.25     LegendNANA
15:00 10.2 -2.3 41 0.0 36 6   97.23     LegendNANA
16:00 10.4 -4.6 35 0.0 34 9   97.18     LegendNANA
17:00 10.6 -4.3 35 0.0 36 7   97.16     LegendNANA
18:00 9.2 -3.7 40 0.0 33 5   97.13     LegendNANA
19:00 8.0 -3.1 45 0.0 33 4   97.12     LegendNANA
20:00 3.5 -2.2 66 0.0   0   97.15     LegendNANA
21:00 2.1 -1.6 77 0.0   0   97.19     LegendNANA
22:00 0.3 -1.9 85 0.0 4 1   97.21     LegendNANA
23:00 -0.7 -1.8 93 0.0   0   97.22     LegendNANA

Notes on Data Quality.

Legend

  • E = Estimated
  • M = Missing
  • NA = Not Available*
  • [empty] = Indicates an unobserved value
Date modified: